Regional Weather Roundup
Issued by NWS

Home | Current Version | Previous Version | Graphics & Text | Print | Product List | Glossary Off
Versions: 1 2 3 4 5 6 7 8 9 10 11 12 13 14 15 16 17 18 19 20 21 22 23 24 25 26 27 28 29 30 31 32 33 34 35 36 37 38 39 40 41 42 43 44 45 46 47 48 49 50

000
ASUS43 KFSD 062110
RWRSD

WEATHER ROUNDUP FOR SOUTH DAKOTA
NATIONAL WEATHER SERVICE SIOUX FALLS SD
300 PM CST FRI MAR 06 2015

NOTE: "FAIR" INDICATES FEW OR NO CLOUDS BELOW 12,000 FEET WITH NO
SIGNIFICANT WEATHER AND/OR OBSTRUCTIONS TO VISIBILITY.


SDZ001>005-009-010-012>017-062200-
NORTHWEST AND NORTH CENTRAL SOUTH DAKOTA

CITY           SKY/WX    TMP DP  RH WIND       PRES   REMARKS
BUFFALO          N/A     57  18  21 W33G40    29.97F
FAITH            N/A     57  15  19 NW22G29   30.01F
MOBRIDGE       CLOUDY    46  20  35 S3        30.02F
$$

SDZ012>016-024>037-041>051-057-063-072>074-062200-
SOUTHWEST AND SOUTH CENTRAL SOUTH DAKOTA

CITY           SKY/WX    TMP DP  RH WIND       PRES   REMARKS
RAPID CTY ARPT SUNNY     58  18  21 NW16G23   30.08F
PIERRE         MOSUNNY   54  22  28 SE8       30.05F
CUSTER         SUNNY     45  16  31 W22G31    30.12F
ELLSWORTH AFB  SUNNY     56  22  26 N16G22    30.08F
PHILIP         MOSUNNY   60  14  16 W20G29    30.05F
PINE RIDGE     PTSUNNY   53  21  28 W21G29    30.13F
SPEARFISH      FAIR      48  21  34 W20G28    30.10F
WINNER         FAIR      55  20  25 W16       30.10F
$$

SDZ004>011-016>023-039-040-062200-
NORTHEAST SOUTH DAKOTA

CITY           SKY/WX    TMP DP  RH WIND       PRES   REMARKS
ABERDEEN       MOSUNNY   43  21  41 W8        30.09F
WATERTOWN      MOSUNNY   33  20  58 NW9       30.08S WCI  25
SISSETON         N/A     37  22  54 NW14      30.07F
$$

SDZ017-020-022-023-036>040-048>070-062200-
SOUTHEAST SOUTH DAKOTA

CITY           SKY/WX    TMP DP  RH WIND       PRES   REMARKS
SIOUX FALLS    PTSUNNY   44  24  45 NW8       30.10F
HURON          SUNNY     41  21  44 CALM      30.11F
CHAMBERLAIN    MOSUNNY   51  24  34 SW5       30.09F
MITCHELL       MOSUNNY   48  19  31 N6        30.11F
YANKTON        PTSUNNY   54  19  26 NW13      30.11F
$$

ABBREVIATIONS USED IN REMARKS
   TC - TEMPERATURE IN CELSIUS
  WCI - WIND CHILL INDEX
   HX - HEAT INDEX
  VSB - VISIBILITY




USA.gov is the U.S. government's official web portal to all federal, state and local government web resources and services.